Regional Weather Roundup
Issued by NWS

Home | Current Version | Previous Version | Text Only | Print | Product List | Glossary On
Versions: 1 2 3 4 5 6 7 8 9 10 11 12 13 14 15 16 17 18 19 20 21 22 23 24 25 26 27
000
ASUS45 KBOI 171810
RWRID

IDAHO REGIONAL WEATHER ROUNDUP
NATIONAL WEATHER SERVICE BOISE ID
1100 AM MST SUN DEC 17 2017

NOTE: "FAIR" INDICATES FEW OR NO CLOUDS BELOW 12000 FEET
WITH NO SIGNIFICANT WEATHER AND/OR OBSTRUCTIONS TO VISIBILITY

IDZ012-014-171900-
SOUTHWEST IDAHO


CITY           SKY/WX    TMP DP  RH WIND       PRES   REMARKS
BOISE          MOSUNNY   31  20  63 CALM      30.28S
CALDWELL       MOSUNNY   35  26  69 E5        30.31R WCI  31
MOUNTAIN HOME  MOSUNNY   29  28  99 CALM      30.27F
$$

IDZ016-017-171900-
SOUTHCENTRAL IDAHO


CITY           SKY/WX    TMP DP  RH WIND       PRES   REMARKS
BURLEY         SUNNY     30  18  60 NW7       30.25R WCI  23
JEROME         CLOUDY    27  18  69 SW7       30.26R WCI  19
TWIN FALLS     MOSUNNY   30  17  58 SW12      30.26R WCI  20
$$

IDZ019>023-171900-
SOUTHEAST IDAHO


CITY           SKY/WX    TMP DP  RH WIND       PRES   REMARKS
IDAHO FALLS    CLOUDY    22  20  92 SW12      30.22R FOG     WCI  10
POCATELLO      CLOUDY    25  18  74 W10       30.25R WCI  15
REXBURG        CLOUDY    19  18  95 CALM      30.20R
$$

IDZ006-010-011-018-031-032-171900-
CENTRAL IDAHO MOUNTAINS


CITY           SKY/WX    TMP DP  RH WIND       PRES   REMARKS
MCCALL         CLOUDY    16  12  84 SE3       30.15S
HAILEY         PTSUNNY   14  12  92 CALM      30.19R
STANLEY          N/A     10   6  84 NE3       30.17F
SALMON         CLOUDY    16  11  80 CALM      30.26R
CHALLIS        CLOUDY    18  11  74 E3        30.16F
$$

IDZ002-004-006-007-026-171900-
NORTHERN IDAHO


CITY           SKY/WX    TMP DP  RH WIND       PRES   REMARKS
LEWISTON       CLOUDY    32  28  85 E5        30.22R WCI  27
LOWELL           N/A     30  26  85 CALM      30.31S
COEUR D`ALENE  LGT SNOW  31  29  92 S8        30.14F FOG     WCI  23
MULLAN PASS    LGT SNOW  24  19  81 VRB6      30.00S VSB 1   WCI  17
$$




USA.gov is the U.S. government's official web portal to all federal, state and local government web resources and services.